This is the latest recevied weather packets stored in our database for station/object KG5MMT-15. If no packets are shown the sender has not sent any weather packets the latest 10 day(s).
| Time | Temp. | Humidity | Pressure | Rain* | Wind** | Luminosity | Snow |
|---|---|---|---|---|---|---|---|
| 1777752744 | 15° C | 24% | 0 hPa | 0 mm | - | - | - |
| 1777752444 | 15° C | 25% | 0 hPa | 0 mm | - | - | - |
| 1777752144 | 14.44° C | 25% | 0 hPa | 0 mm | - | - | - |
| 1777751844 | 13.89° C | 26% | 0 hPa | 0 mm | - | - | - |
| 1777751544 | 13.33° C | 27% | 0 hPa | 0 mm | - | - | - |
| 1777751244 | 13.33° C | 27% | 0 hPa | 0 mm | - | - | - |
| 1777750944 | 13.89° C | 28% | 0 hPa | 0 mm | - | - | - |
| 1777750644 | 13.89° C | 29% | 0 hPa | 0 mm | - | - | - |
| 1777750344 | 13.89° C | 29% | 0 hPa | 0 mm | - | - | - |
| 1777750044 | 13.33° C | 28% | 0 hPa | 0 mm | - | - | - |
| 1777749744 | 13.33° C | 29% | 0 hPa | 0 mm | - | - | - |
| 1777749444 | 12.78° C | 28% | 0 hPa | 0 mm | - | - | - |
| 1777749144 | 13.33° C | 29% | 0 hPa | 0 mm | - | - | - |
| 1777748844 | 13.33° C | 28% | 0 hPa | 0 mm | - | - | - |
| 1777748718 | 13.33° C | 28% | 0 hPa | 0 mm | - | - | - |
| 1777748544 | 13.33° C | 28% | 0 hPa | 0 mm | - | - | - |
| 1777748244 | 12.78° C | 29% | 0 hPa | 0 mm | - | - | - |
| 1777747944 | 12.78° C | 29% | 0 hPa | 0 mm | - | - | - |
| 1777747700 | 12.78° C | 28% | 0 hPa | 0 mm | - | - | - |
| 1777747644 | 12.78° C | 28% | 0 hPa | 0 mm | - | - | - |
| 1777747346 | 12.78° C | 31% | 0 hPa | 0 mm | - | - | - |
| 1777747044 | 12.22° C | 27% | 0 hPa | 0 mm | - | - | - |
| 1777746744 | 12.22° C | 28% | 0 hPa | 0 mm | - | - | - |
| 1777746444 | 12.22° C | 29% | 0 hPa | 0 mm | - | - | - |
| 1777746144 | 12.22° C | 33% | 0 hPa | 0 mm | - | - | - |
* Rain latest hour (hover to see other rain measurements)
** Current wind speed in m/s (hover to see current wind gust speed)